Location: Colonia Mina de C?rbuni
(46.1667°N, 22.7167°E)
Time: 09:21:01
(UTC+00:00)

Vanguard 1 - Pass Details

Date: 19 April 2024
Orbit: 652 x 3825 km, 34.2° (Epoch: 29 May)

Event Time Altitude Azimuth Distance (km) Brightness Sun altitude
Exits shadow 00:14:47 14° 168° (SSE) 6,513 13.8 -27.8°
Maximum altitude 00:24:23 19° 140° (SE) 5,724 13.7 -26.9°
Drops below altitude 10° 00:35:17 10° 104° (ESE) 5,732 14.2 -25.9°
Sets 00:40:54 0° 88° (E) 6,225 14.7 -25.3°
